Stations météo

réclame
Mon MeteoGroup
Eskdalemuir, Grande-Bretagne (3162): Température de l'air & dewpoint: 16.07.2018 17:00:00 - 22.07.2018 17:00:00 (BST)Eskdalemuir, Grande-Bretagne (3162): Température de l'air -20cm & Température de l'air -100cm: 16.07.2018 17:00:00 - 22.07.2018 17:00:00 (BST)Eskdalemuir, Grande-Bretagne (3162): Vitesse du vent: 16.07.2018 17:00:00 - 22.07.2018 17:00:00 (BST)Eskdalemuir, Grande-Bretagne (3162): Direction du vent: 16.07.2018 17:00:00 - 22.07.2018 17:00:00 (BST)Eskdalemuir, Grande-Bretagne (3162): reduced air pressure: 16.07.2018 17:00:00 - 22.07.2018 17:00:00 (BST)Eskdalemuir, Grande-Bretagne (3162): visibility: 16.07.2018 17:00:00 - 22.07.2018 17:00:00 (BST)Eskdalemuir, Grande-Bretagne (3162): Ensoleillement: 16.07.2018 17:00:00 - 22.07.2018 17:00:00 (BST)Eskdalemuir, Grande-Bretagne (3162): Quantités de précipitations: 16.07.2018 17:00:00 - 22.07.2018 17:00:00 (BST)
Date & Time tt [°C] td [°C] tt -20cm [°C] tt -100cm [°C] ff [km/h] ff [knt] dd ppp [hPa] vv [km] sd [min] rr [mm]
22.07.2018 17:00:00 19,5 17,0 - - 18 10 S 1014,2 30 0 0,0
22.07.2018 16:00:00 20,2 17,3 - - 15 8 SSW 1014,4 24 0 0,0
22.07.2018 15:00:00 18,6 16,8 - - 5 3 SSW 1014,7 23 0 0,0
22.07.2018 14:00:00 17,7 16,1 - - 21 11 S 1015,0 19 0 0,0
22.07.2018 13:00:00 17,8 15,7 - - 15 8 S 1015,0 45 0 0,0
22.07.2018 12:00:00 17,8 15,7 - - 11 6 SSW 1014,9 45 0 0,0
22.07.2018 11:00:00 16,7 15,2 - - 11 6 S 1015,0 35 0 0,0
22.07.2018 10:00:00 15,3 14,4 16,5 14,7 8 4 SSW 1015,0 19 0 0,0
22.07.2018 09:00:00 14,4 13,9 - - 9 5 S 1014,9 12 0 0,0
22.07.2018 08:00:00 13,9 13,6 - - 8 4 SSW 1014,7 8 0 0,0
22.07.2018 07:00:00 13,6 13,4 - - 9 5 S 1014,5 8 0 0,0
22.07.2018 06:00:00 13,5 13,1 - - 11 6 SW 1014,2 11 0 0,2
22.07.2018 05:00:00 13,0 12,9 - - 8 4 SSE 1014,1 3,2 0 0,0
22.07.2018 04:00:00 13,2 12,9 - - 9 5 SSE 1013,9 2,4 0 0,0
22.07.2018 03:00:00 13,0 12,6 - - 11 6 S 1013,9 6 0 0,0
22.07.2018 02:00:00 12,8 12,3 - - 11 6 S 1014,5 4,8 0 0,0
22.07.2018 01:00:00 12,5 12,0 - - 8 4 SE 1014,9 3,5 - 0,0
22.07.2018 00:00:00 13,1 11,7 - - 8 4 S 1014,9 50 0 0,0
21.07.2018 23:00:00 13,2 11,7 - - 5 3 S 1015,0 50 0 0,0
21.07.2018 22:00:00 14,6 11,6 - - 8 4 SW 1014,8 45 0 0,0
21.07.2018 21:00:00 15,8 11,9 - - 11 6 W 1014,4 50 0 0,0
21.07.2018 20:00:00 16,8 13,8 - - 8 4 W 1013,4 50 0 0,0
21.07.2018 19:00:00 16,6 14,3 - - 16 9 SSW 1013,3 23 0 0,0
21.07.2018 18:00:00 17,3 14,7 - - 16 9 SSW 1013,4 30 6 0,0
21.07.2018 17:00:00 17,9 15,0 - - 18 10 S 1013,3 35 0 0,0
21.07.2018 16:00:00 18,8 14,4 - - 18 10 S 1013,4 40 0 0,0
21.07.2018 15:00:00 18,4 14,7 - - 16 9 SSW 1013,5 45 18 0,0
21.07.2018 14:00:00 17,5 14,2 - - 11 6 SW 1014,0 50 0 0,0
21.07.2018 13:00:00 17,2 14,6 - - 13 7 SW 1014,1 40 0 0,0
21.07.2018 12:00:00 16,1 14,5 - - 11 6 S 1014,0 28 0 0,0
21.07.2018 11:00:00 15,9 14,4 - - 13 7 SSW 1013,9 23 0 0,0
21.07.2018 10:00:00 16,0 13,8 16,2 14,7 9 5 SSW 1013,9 40 0 0,0
21.07.2018 09:00:00 15,1 14,0 - - 8 4 S 1013,9 45 0 0,0
21.07.2018 08:00:00 13,9 13,8 - - 5 3 SSE 1013,9 4,0 0 0,0
21.07.2018 07:00:00 13,6 13,4 - - 2 1 SSE 1014,0 15 0 0,0
21.07.2018 06:00:00 13,3 13,3 - - 2 1 S 1013,8 35 0 0,0
21.07.2018 05:00:00 13,2 13,1 - - 2 1 W 1013,7 17 0 0,0
21.07.2018 04:00:00 13,3 13,3 - - 4 2 SW 1013,5 3,1 0 0,2
21.07.2018 03:00:00 13,4 13,4 - - 4 2 SE 1013,4 2,6 0 0,0
21.07.2018 02:00:00 13,3 13,3 - - 4 2 SW 1013,5 4,7 0 0,0
21.07.2018 01:00:00 13,4 13,4 - - 8 4 S 1013,3 0,6 - 0,0
21.07.2018 00:00:00 13,3 13,3 - - 5 3 S 1013,3 0,8 0 0,0
20.07.2018 23:00:00 13,4 13,4 - - 2 1 SSW 1013,5 2,7 0 0,0
20.07.2018 22:00:00 13,4 13,3 - - 8 4 SSW 1013,4 3,9 0 0,2
20.07.2018 21:00:00 13,5 13,4 - - 8 4 S 1013,4 4,6 0 0,0
20.07.2018 20:00:00 13,7 13,4 - - 13 7 S 1013,0 2,5 0 0,0
20.07.2018 19:00:00 14,0 13,4 - - 15 8 S 1012,7 23 0 0,0
20.07.2018 18:00:00 14,5 14,1 - - 16 9 S 1012,6 6 0 0,0
20.07.2018 17:00:00 14,4 13,8 - - 16 9 S 1012,8 4,8 0 0,4
20.07.2018 16:00:00 13,9 13,4 - - 16 9 S 1012,9 3,5 0 0,6
20.07.2018 15:00:00 13,9 13,4 - - 16 9 SSW 1013,0 4,5 0 1,0
20.07.2018 14:00:00 14,4 13,2 - - 16 9 SSW 1012,9 6 0 0,0
20.07.2018 13:00:00 13,1 12,5 - - 15 8 S 1013,2 9 0 0,0
20.07.2018 12:00:00 12,8 12,2 - - 9 5 S 1013,5 15 0 1,4
20.07.2018 11:00:00 12,5 11,6 - - 13 7 S 1013,7 8 0 0,6
20.07.2018 10:00:00 12,9 11,6 16,7 14,7 18 10 SSW 1013,9 8 0 0,2
20.07.2018 09:00:00 12,2 11,6 - - 11 6 S 1014,1 13 0 0,2
20.07.2018 08:00:00 9,4 8,9 - - 2 1 ENE 1014,7 7 0 0,0
20.07.2018 07:00:00 8,1 7,9 - - 2 1 ESE 1014,8 30 0 0,0
20.07.2018 06:00:00 7,5 7,2 - - 2 1 N 1015,1 30 0 0,0
20.07.2018 05:00:00 6,8 6,7 - - 2 1 S 1015,7 21 0 0,0
20.07.2018 04:00:00 6,7 6,6 - - 4 2 NNW 1016,2 11 0 0,0
20.07.2018 03:00:00 7,3 7,1 - - 2 1 NW 1016,7 21 0 0,0
20.07.2018 02:00:00 7,8 7,5 - - 2 1 N 1017,0 28 0 0,0
20.07.2018 01:00:00 8,6 7,9 - - 0 0 N 1017,2 45 - 0,0
20.07.2018 00:00:00 9,4 8,6 - - 2 1 E 1017,4 50 0 0,0
19.07.2018 23:00:00 10,5 8,6 - - 4 2 S 1017,5 50 0 0,0
19.07.2018 22:00:00 12,3 9,2 - - 0 0 N 1017,5 50 6 0,0
19.07.2018 21:00:00 14,0 10,1 - - 4 2 SE 1017,2 50 24 0,0
19.07.2018 20:00:00 16,4 10,9 - - 5 3 S 1017,1 50 18 0,0
19.07.2018 19:00:00 17,5 10,9 - - 8 4 SSW 1017,2 45 0 0,0
19.07.2018 18:00:00 17,2 11,0 - - 15 8 SSW 1017,4 45 0 0,0
19.07.2018 17:00:00 18,8 11,3 - - 16 9 SSW 1017,5 45 18 0,0
19.07.2018 16:00:00 17,6 11,1 - - 22 12 SSW 1018,0 35 6 0,0
19.07.2018 15:00:00 20,5 9,2 - - 16 9 S 1017,7 35 60 0,0
19.07.2018 14:00:00 19,8 8,7 - - 21 11 S 1017,9 35 48 0,0
19.07.2018 13:00:00 20,3 11,0 - - 15 8 SSW 1018,0 30 48 0,0
19.07.2018 12:00:00 18,5 11,7 - - 16 9 S 1018,6 22 54 0,0
19.07.2018 11:00:00 16,0 12,5 - - 11 6 SW 1019,1 16 0 0,0
19.07.2018 10:00:00 14,4 12,4 16,7 14,7 9 5 SSE 1019,3 12 0 0,0
19.07.2018 09:00:00 13,4 12,1 - - 8 4 S 1019,6 10 0 0,0
19.07.2018 08:00:00 12,7 11,9 - - 4 2 SE 1019,7 8 0 0,0
19.07.2018 07:00:00 11,2 11,0 - - 2 1 WSW 1019,8 5 0 0,0
19.07.2018 06:00:00 10,6 10,5 - - 4 2 NW 1019,8 3,4 0 0,0
19.07.2018 05:00:00 9,6 9,4 - - 4 2 NNW 1020,0 6 0 0,0
19.07.2018 04:00:00 8,4 8,3 - - 4 2 ENE 1020,3 19 0 0,0
19.07.2018 03:00:00 8,9 8,9 - - 2 1 N 1020,0 9 0 0,0
19.07.2018 02:00:00 8,7 8,6 - - 0 0 N 1020,1 7 0 0,0
19.07.2018 01:00:00 9,5 9,4 - - 2 1 N 1019,9 11 - 0,0
19.07.2018 00:00:00 10,1 9,7 - - 4 2 NW 1019,9 20 0 0,0
18.07.2018 23:00:00 11,9 11,1 - - 5 3 NNW 1019,5 24 0 0,0
18.07.2018 22:00:00 14,6 11,9 - - 4 2 SSW 1019,1 35 0 0,0
18.07.2018 21:00:00 15,6 12,2 - - 8 4 SSE 1018,7 35 0 0,0
18.07.2018 20:00:00 17,1 12,1 - - 13 7 S 1018,3 27 0 0,0
18.07.2018 19:00:00 17,9 10,8 - - 16 9 S 1018,1 45 0 0,0
18.07.2018 18:00:00 18,5 12,4 - - 13 7 SSW 1017,7 35 30 0,0
18.07.2018 17:00:00 18,8 12,3 - - 8 4 S 1017,7 40 6 0,0
18.07.2018 16:00:00 16,7 12,7 - - 9 5 S 1017,9 35 0 0,0
18.07.2018 15:00:00 16,6 12,6 - - 8 4 SSW 1018,0 35 0 0,0
18.07.2018 14:00:00 15,4 13,8 - - 11 6 SW 1018,1 30 0 0,2
18.07.2018 13:00:00 16,7 12,7 - - 15 8 SSW 1017,5 35 0 0,0
18.07.2018 12:00:00 16,2 12,7 - - 15 8 SSW 1017,5 35 0 0,0
18.07.2018 11:00:00 14,7 12,2 - - 11 6 S 1017,5 30 0 0,0
18.07.2018 10:00:00 13,5 11,2 16,7 14,7 5 3 SE 1017,4 35 0 0,0
18.07.2018 09:00:00 12,0 10,4 - - 4 2 SSE 1017,6 30 0 0,0
18.07.2018 08:00:00 10,7 9,6 - - 2 1 SSE 1017,5 20 0 0,0
18.07.2018 07:00:00 8,9 8,4 - - 2 1 ESE 1017,2 20 0 0,0
18.07.2018 06:00:00 8,2 8,1 - - 0 0 N 1017,0 11 0 0,0
18.07.2018 05:00:00 7,3 7,3 - - 2 1 WSW 1017,0 9 0 0,0
18.07.2018 04:00:00 6,6 6,6 - - 0 0 N 1017,1 10 0 0,0
18.07.2018 03:00:00 7,0 6,9 - - 2 1 NW 1016,9 7 0 0,0
18.07.2018 02:00:00 8,0 7,9 - - 4 2 N 1016,8 17 0 0,0
18.07.2018 01:00:00 8,1 8,0 - - 4 2 NW 1016,6 16 - 0,0
18.07.2018 00:00:00 8,2 7,9 - - 2 1 SW 1016,8 14 0 0,0
17.07.2018 23:00:00 9,0 8,4 - - 4 2 WNW 1016,3 19 0 0,0
17.07.2018 22:00:00 10,9 9,6 - - 2 1 SE 1015,7 28 0 0,0
17.07.2018 21:00:00 13,6 10,5 - - 13 7 SSW 1014,9 23 30 0,0
17.07.2018 20:00:00 14,5 9,7 - - 9 5 SW 1014,5 40 6 0,0
17.07.2018 19:00:00 14,9 9,7 - - 11 6 SW 1014,2 35 0 0,0
17.07.2018 18:00:00 15,6 10,5 - - 13 7 SSW 1014,0 30 6 0,0
17.07.2018 17:00:00 14,7 10,5 - - 13 7 SW 1014,0 50 0 0,0
17.07.2018 16:00:00 15,7 10,4 - - 18 10 SW 1013,9 40 6 0,0
17.07.2018 15:00:00 14,9 10,6 - - 13 7 SW 1013,8 50 0 0,0
17.07.2018 14:00:00 13,9 10,2 - - 15 8 W 1013,9 45 6 0,0
17.07.2018 13:00:00 14,7 12,0 - - 9 5 SE 1013,6 40 0 0,0
17.07.2018 12:00:00 13,2 11,7 - - 5 3 SSE 1014,0 18 0 0,6
17.07.2018 11:00:00 13,6 11,7 - - 5 3 S 1013,6 15 0 4,0
17.07.2018 10:00:00 14,8 10,2 17,0 14,9 8 4 WSW 1013,1 40 12 0,0
17.07.2018 09:00:00 13,8 11,6 - - 9 5 WSW 1013,2 26 0 0,0
17.07.2018 08:00:00 11,9 11,6 - - 4 2 SSE 1013,2 7 0 0,0
17.07.2018 07:00:00 11,2 11,1 - - 2 1 SE 1013,2 7 0 0,0
17.07.2018 06:00:00 10,7 10,7 - - 2 1 E 1013,1 2,2 0 0,0
17.07.2018 05:00:00 10,6 10,6 - - 2 1 WNW 1012,8 2,3 0 0,0
17.07.2018 04:00:00 10,9 10,7 - - 0 0 N 1012,9 3,0 0 0,0
17.07.2018 03:00:00 12,2 11,7 - - 4 2 S 1013,1 11 0 0,0
17.07.2018 02:00:00 12,2 11,8 - - 8 4 S 1013,2 14 0 0,0
17.07.2018 01:00:00 12,3 12,0 - - 5 3 SSE 1013,7 9 - 0,0
17.07.2018 00:00:00 12,6 12,3 - - 5 3 SE 1013,8 12 0 0,0
16.07.2018 23:00:00 12,7 12,5 - - 4 2 SE 1013,5 15 0 0,0
16.07.2018 22:00:00 13,1 12,8 - - 2 1 ESE 1013,4 13 0 0,4
16.07.2018 21:00:00 13,3 12,7 - - 8 4 SW 1013,3 6 0 1,0
16.07.2018 20:00:00 13,8 12,6 - - 4 2 E 1012,8 11 0 0,4
16.07.2018 19:00:00 15,3 11,4 - - 15 8 S 1012,6 45 0 0,0
16.07.2018 18:00:00 16,4 11,7 - - 13 7 SSW 1012,2 35 0 0,0
16.07.2018 17:00:00 17,5 12,4 - - 18 10 SSW 1012,0 40 12 0,0

tt = Température de l'air
td = dewpoint
tt -20cm = Température de l'air -20cm
tt -100cm = Température de l'air -100cm
ff = Vitesse du vent
dd = Direction du vent
ppp = reduced air pressure
vv = visibility
sd = Ensoleillement
rr = Quantités de précipitations

stations d'obs. à proximité